Aérodrome :
LOGIN :

S'inscrire | Disclaimer

   EN    FR    IT 

 










Légende :    VFR   VFR Marginal   IFR   IFR Intensif   IFR Très Intensif
Visi : 
Plafond : 
>= 8 km
>= 3000ft
5 à 8 km
1000 à 3000 ft
1500m à 5 km
500 à 1000 ft
800 à 1500m
200 à 500 ft
< 800m
< 200 ft
Symboles :   Orages  Brouillard  Fortes neiges  Fortes précipitations  Vent > 20 kt
SIGMETs :   Divers  Orages  Givrage  Turbulence  Onde Orograph.  Cendres Volcan.






- Altitude de l'aérodrome : 85 ft
- Code IATA : SFA


DTTX - Thyna/El Maou - Sfax

DERNIER METAR :
  • 090000Z AUTO 32002KT NCD 13/10 Q1022

METARs EXPIRÉS :
  • 082300Z AUTO 00000KT NCD 14/11 Q1023
  • 082200Z AUTO 17002KT NCD 14/11 Q1023

TAF TAF DTTX
Valide du 09 à 00h jusqu'au 10 à 00h UTC


082300Z 0900/0924 16004KT 9999 SCT020
PROB30 0904/0908 3000 BR
BECMG 0912/0914 16010KT



MET'MAP, la Météo Aéronautique d'un coup d'oeil ! - Copyright ORBIFLY Décembre 2007 - Disclaimer

ORBIFLY MET'MAP TEAM :

Programmation & Développement : Alexandra Zaïnal
Sur une idée originale de : Baudouin d'Aumeries
Assistance à la programmation : Marc-Olivier Méhu
Soutien technique & logistique : Manuel Goepfert

Contact : metmap@orbifly.com




SOURCES & CREDITS :

   NOAA